Regional Weather Roundup
Issued by NWS Midland/Odessa, TX

Home | Current Version | Previous Version | Text Only | Print | Product List | Glossary On
Versions: 1 2 3 4 5 6 7 8 9 10 11 12 13 14 15 16 17 18 19 20 21 22 23 24 25 26 27 28 29 30 31 32 33 34 35 36 37 38 39 40 41 42 43 44 45 46 47 48 49 50
000
ASUS44 KMAF 070910
RWRMAF
MIDLAND AREA WEATHER ROUNDUP
NATIONAL WEATHER SERVICE MIDLAND TX
300 AM CST SUN FEB 07 2016

...IN SOUTHWEST TEXAS AND SOUTHEAST NEW MEXICO...

CITY           SKY/WX    TMP DP  RH WIND       PRES   REMARKS
ALPINE         CLOUDY    43   5  20 S12       30.32F WCI  37
ANDREWS        FAIR      39  13  35 SW12      30.19F WCI  32
ARTESIA        CLOUDY    43   9  24 W16       30.17F WCI  35
BIG SPRING     CLOUDY    37  14  38 S15       30.21F WCI  28
CARLSBAD       CLEAR     37   8  30 E7        30.18F WCI  32
DRYDEN           N/A     33  12  41 CALM      30.23F
FORT STOCKTON  CLOUDY    47  12  24 SW14      30.22F
GUAD PASS      CLOUDY    34   3  27 SW21      30.26F WCI  22
HOBBS          CLOUDY    28   9  43 S6        30.18F WCI  22
MARFA          CLEAR     18   5  57 CALM      30.31F
MIDLAND AIRPK  CLOUDY    41  16  36 S7        30.21F WCI  37
MIDLAND INTL   CLOUDY    38  17  42 S8        30.20F WCI  32
ODESSA         CLOUDY    37  15  40 SW8       30.20F WCI  31
PECOS          CLOUDY    30  12  47 CALM      30.22F
PRESIDIO       FAIR      41   9  26 N5        30.28S WCI  38
SEMINOLE       CLOUDY    32  13  46 SW8       30.18F WCI  25
SNYDER           N/A     32  19  57 S9        30.19F WCI  24
WINK           CLOUDY    28  15  58 N5        30.20F WCI  23
$$
...OTHER STATIONS IN TEXAS...

CITY           SKY/WX    TMP DP  RH WIND       PRES   REMARKS
ABILENE        CLEAR     40  18  41 S14       30.21F WCI  32
AMARILLO       CLOUDY    28  11  48 SW9       30.11F WCI  19
AUSTIN         CLOUDY    31  29  92 SW7       30.34S WCI  24
BROWNSVILLE    CLEAR     41  36  82 CALM      30.33F
CORPUS CHRISTI CLEAR     48  39  71 E6        30.35F
DALLAS FTW     CLEAR     35  30  82 S8        30.25F WCI  29
DEL RIO        CLOUDY    38  19  46 E8        30.28F WCI  32
EL PASO        MOCLDY    31   7  36 E3        30.30F
HOUSTON INT    CLEAR     39  36  89 CALM      30.34F
LUBBOCK        CLOUDY    40  11  30 SW20      30.12F WCI  30
SAN ANGELO     CLOUDY    30  18  60 S5        30.24F WCI  25
SAN ANTONIO    PTCLDY    35  28  75 W5        30.34F WCI  31
WACO           CLEAR     29  27  92 S6        30.30F FOG     WCI  23
WICHITA FALLS  NOT AVBL
$$
...OTHER LOCATIONS IN NEW MEXICO...

CITY           SKY/WX    TMP DP  RH WIND       PRES   REMARKS
ALAMAGORDO     CLOUDY    28   1  31 CALM      30.30F
ALBUQUERQUE    CLOUDY    36  14  40 N10       30.36F WCI  28
CANNON AFB     CLOUDY    35  15  45 NW10      30.12S WCI  27
CLOVIS         CLOUDY    34  16  47 NW13      30.13S WCI  25
HOLLOMAN AFB   CLEAR     27   4  38 CALM      30.29F
ROSWELL        CLOUDY    28  14  55 NE6       30.18F WCI  22
RUIDOSO          N/A     39   7  26 W26G36    30.27F WCI  28
SANTA FE       CLOUDY    28  15  58 NW13      30.31F WCI  17
TRUTH OR CONSE CLEAR     30   8  39 N7        30.31F WCI  23
TUCUMCARI      CLOUDY    26  14  60 SW5       30.14S WCI  20
$$



USA.gov is the U.S. government's official web portal to all federal, state and local government web resources and services.